This demonstration page uses our WeatherBlox Daily Observations layout. Learn more.

Left ArrowRight Arrow

40.92945, -100.16068

Hourly Observations for February 2, 2018

Temp ( °F °C ) Dew Point ( °F °C ) Humidity (%) Winds ( mph kmh ) Pressure ( in mb ) Visibility ( mi km ) Precip ( " mm )
12:15 am 00:15 Cloudy 23 -5 16 -9.1 73 73 S 7 11 30.56 1035 10 16.0934 0 0
12:35 am 00:35 Cloudy 24 -4.7 16 -9.1 72 72 S 8 13 30.56 1035 10 16.0934 0 0
12:55 am 00:55 Cloudy 24 -4.5 15 -9.3 69 69 S 8 13 30.53 1034 10 16.0934 0 0
1:15 am 01:15 Cloudy 24 -4.3 16 -9.1 70 70 S 10 17 30.53 1034 10 16.0934 0 0
1:35 am 01:35 Cloudy 24 -4.4 15 -9.5 68 68 S 9 15 30.53 1034 10 16.0934 0 0
1:55 am 01:55 Cloudy 24 -4.6 15 -9.5 69 69 S 8 13 30.53 1034 10 16.0934 0 0
2:15 am 02:15 Cloudy 24 -4.7 15 -9.5 69 69 S 12 19 30.5 1033 10 16.0934 0 0
2:35 am 02:35 Cloudy 24 -4.7 15 -9.2 71 71 S 10 17 30.5 1033 10 16.0934 0 0
2:55 am 02:55 Cloudy 23 -4.8 16 -9.1 72 72 S 12 19 30.5 1033 10 16.0934 0 0
3:15 am 03:15 Cloudy 23 -4.8 16 -8.8 74 74 S 10 17 30.5 1033 10 16.0934 0 0
3:35 am 03:35 Cloudy 23 -4.8 16 -8.9 73 73 S 9 15 30.5 1033 10 16.0934 0 0
3:55 am 03:55 Cloudy 23 -5 16 -8.8 75 75 S 9 15 30.53 1034 10 16.0934 0 0
4:15 am 04:15 Mostly Cloudy 22 -5.3 16 -9 76 76 SSE 7 11 30.53 1034 10 16.0934 0 0
4:35 am 04:35 Mostly Cloudy 22 -5.5 16 -9.1 76 76 SSE 8 13 30.53 1034 10 16.0934 0 0
4:55 am 04:55 Cloudy 22 -5.5 16 -8.9 77 77 SSE 7 11 30.5 1033 10 16.0934 0 0
5:15 am 05:15 Cloudy 22 -5.7 15 -9.2 77 77 SSE 9 15 30.5 1033 10 16.0934 0 0
5:35 am 05:35 Cloudy 21 -6.1 15 -9.2 79 79 SE 8 13 30.5 1033 10 16.0934 0 0
5:55 am 05:55 Mostly Cloudy 21 -6.2 15 -9.3 79 79 SE 6 9 30.5 1033 10 16.0934 0 0
6:15 am 06:15 Partly Cloudy 20 -6.4 16 -9.1 81 81 SSE 8 13 30.5 1033 10 16.0934 0 0
6:35 am 06:35 Clear 20 -6.5 16 -9.1 82 82 SSE 7 11 30.5 1033 10 16.0934 0 0
6:55 am 06:55 Clear 20 -6.8 15 -9.4 82 82 SSE 8 13 30.5 1033 10 16.0934 0 0
7:15 am 07:15 Clear 20 -6.9 15 -9.3 83 83 SSE 7 11 30.5 1033 10 16.0934 0 0
7:35 am 07:35 Clear 20 -6.7 15 -9.3 82 82 S 8 13 30.48 1032 10 16.0934 0 0
7:55 am 07:55 Sunny 20 -6.7 15 -9.5 81 81 S 9 15 30.48 1032 10 16.0934 0 0
8:15 am 08:15 Sunny 21 -6.2 16 -9 81 81 S 10 17 30.48 1032 10 16.0934 0 0
8:35 am 08:35 Sunny 22 -5.7 16 -8.8 79 79 S 9 15 30.48 1032 10 16.0934 0 0
8:55 am 08:55 Sunny 22 -5.5 16 -8.7 78 78 S 9 15 30.42 1030 10 16.0934 0 0
9:15 am 09:15 Sunny 24 -4.6 17 -8.1 77 77 SSE 8 13 30.42 1030 10 16.0934 0 0
9:35 am 09:35 Sunny 25 -3.9 18 -7.9 74 74 S 9 15 30.42 1030 10 16.0934 0 0
9:55 am 09:55 Sunny 27 -3 18 -7.6 71 71 S 9 15 30.42 1030 10 16.0934 0 0
10:15 am 10:15 Sunny 28 -2 19 -7.2 68 68 S 8 13 30.39 1029 10 16.0934 0 0
10:35 am 10:35 Sunny 30 -1 20 -6.7 66 66 SSW 9 15 30.36 1028 10 16.0934 0 0
10:55 am 10:55 Sunny 31 -0.3 20 -6.5 63 63 SSW 16 26 30.33 1027 10 16.0934 0 0
11:15 am 11:15 Sunny 32 0.1 21 -6.1 63 63 SSW 14 22 30.33 1027 10 16.0934 0 0
11:35 am 11:35 Sunny 34 1 22 -5.5 62 62 S 16 26 30.33 1027 10 16.0934 0 0
11:55 am 11:55 Sunny 35 1.7 23 -5.2 61 61 SSW 17 28 30.3 1026 10 16.0934 0 0
12:15 pm 12:15 Sunny 37 2.6 23 -4.8 59 59 SSW 15 24 30.27 1025 10 16.0934 0 0
12:35 pm 12:35 Sunny 38 3.6 24 -4.5 56 56 SW 13 20 30.24 1024 10 16.0934 0 0
12:55 pm 12:55 Sunny 40 4.7 24 -4.2 53 53 SSW 14 22 30.24 1024 10 16.0934 0 0
1:15 pm 13:15 Sunny 41 5.2 25 -4.1 51 51 SW 14 22 30.18 1022 10 16.0934 0 0
1:35 pm 13:35 Sunny 41 5.1 25 -3.9 53 53 SSW 13 20 30.18 1022 10 16.0934 0 0
1:55 pm 13:55 Sunny 42 5.5 26 -3.6 52 52 SSW 13 20 30.15 1021 10 16.0934 0 0
2:15 pm 14:15 Sunny 42 5.7 25 -3.7 51 51 SW 14 22 30.15 1021 10 16.0934 0 0
2:35 pm 14:35 Sunny 42 5.5 26 -3.3 53 53 SSW 10 17 30.15 1021 10 16.0934 0 0
2:55 pm 14:55 Sunny 44 6.5 27 -3 51 51 SSW 9 15 30.12 1020 10 16.0934 0 0
3:15 pm 15:15 Partly Cloudy 43 6.3 27 -3 52 52 SW 12 19 30.12 1020 10 16.0934 0 0
3:35 pm 15:35 Partly Cloudy 43 6.2 27 -2.6 54 54 SW 8 13 30.12 1020 10 16.0934 0 0
3:55 pm 15:55 Sunny 43 6.3 28 -2.5 54 54 SW 9 15 30.12 1020 10 16.0934 0 0
4:15 pm 16:15 Sunny 44 6.5 28 -2.1 55 55 SSW 10 17 30.09 1019 10 16.0934 0 0
4:35 pm 16:35 Sunny 44 6.9 28 -2.1 53 53 SSW 12 19 30.09 1019 10 16.0934 0 0
4:55 pm 16:55 Sunny 44 6.5 29 -1.7 56 56 SSW 6 9 30.09 1019 10 16.0934 0 0
5:15 pm 17:15 Sunny 43 6.2 30 -1.1 60 60 SSW 5 7 30.09 1019 10 16.0934 0 0
5:35 pm 17:35 Sunny 42 5.4 30 -1.1 63 63 SSW 6 9 30.09 1019 10 16.0934 0 0
5:55 pm 17:55 Mostly Cloudy 40 4.7 30 -1.3 65 65 SSW 6 9 30.09 1019 10 16.0934 0 0
6:15 pm 18:15 Cloudy 40 4.2 30 -1.3 68 68 SSW 5 7 30.09 1019 10 16.0934 0 0
6:35 pm 18:35 Cloudy 39 4 30 -1.3 69 69 SSW 5 7 30.09 1019 10 16.0934 0 0
6:55 pm 18:55 Cloudy 40 4.5 30 -1.2 67 67 SSW 6 9 30.09 1019 10 16.0934 0 0
7:15 pm 19:15 Cloudy 39 4.1 30 -1.1 69 69 SW 6 9 30.09 1019 10 16.0934 0 0
7:35 pm 19:35 Cloudy 38 3.6 30 -1 72 72 S 5 7 30.12 1020 10 16.0934 0 0
7:55 pm 19:55 Cloudy 37 3 30 -1 75 75 S 5 7 30.12 1020 10 16.0934 0 0
8:15 pm 20:15 Cloudy 38 3.4 30 -1.2 72 72 SSE 3 6 30.12 1020 10 16.0934 0 0
8:35 pm 20:35 Cloudy 37 3 30 -1.3 74 74 Calm 30.12 1020 10 16.0934 0 0
8:55 pm 20:55 Cloudy 37 2.8 30 -1.1 76 76 Calm 30.09 1019 10 16.0934 0 0
9:15 pm 21:15 Cloudy 36 2.2 30 -1 80 80 Calm 30.09 1019 10 16.0934 0 0
9:35 pm 21:35 Cloudy 37 3 31 -0.8 76 76 S 5 7 30.09 1019 10 16.0934 0 0
9:55 pm 21:55 Cloudy 38 3.2 30 -1 74 74 S 5 7 30.09 1019 10 16.0934 0 0
10:15 pm 22:15 Cloudy 39 3.7 30 -1 72 72 SE 5 7 30.06 1018 10 16.0934 0 0
10:35 pm 22:35 Cloudy 38 3.6 30 -1.1 72 72 ESE 6 9 30.03 1017 10 16.0934 0 0
10:55 pm 22:55 Cloudy 39 3.7 30 -1 72 72 Calm 30.03 1017 10 16.0934 0 0
11:15 pm 23:15 Cloudy 38 3.2 30 -1.1 74 74 S 3 6 30.06 1018 10 16.0934 0 0
11:35 pm 23:35 Cloudy 37 3 30 -1.2 74 74 S 7 11 30.03 1017 10 16.0934 0 0
11:55 pm 23:55 Cloudy 40 4.3 30 -1.2 68 68 SSE 5 7 30 1016 10 16.0934 0 0

Powered by AerisWeather